SCP
1 1 1 1 2 3 4 3 2 1 1 1 1 1 0 0 0 0 1 1 0 0 0 0 0 0 0 0 0 0 0 0 0 0 0 0 0 0 0 0 1 1 1
1 1 1 1 1 2 2 2 2 1 1 1 1 0 0 0 0 0 0 0 0 0 0 0 0 0 0 0 0 0 0 0 0 0 0 0 0 0 0 0 0 1 1
0 0 0 1 1 1 1 1 1 1 0 0 1 1 0 0 0 0 0 0 0 0 0 0 0 0 0 0 0 0 0 0 0 0 0 0 0 0 0 0 0 0 0
0 0 0 0 0 0 0 0 0 0 0 0 1 1 1 0 0 0 0 0 0 0 0 0 0 0 0 0 0 0 0 0 0 0 0 0 0 0 0 0 0 0 0
0 0 0 0 0 0 0 0 0 0 0 0 0 1 1 1 1 1 0 0 1 1 1 0 0 0 0 0 0 0 0 0 0 0 0 0 0 0 0 0 0 0 0
0 0 0 0 0 0 0 0 0 0 0 0 0 0 0 1 1 1 1 1 1 1 1 0 0 0 0 0 0 0 0 0 0 0 0 0 0 0 0 0 0 0 0
0 0 0 0 0 0 0 0 0 0 0 0 0 0 0 0 0 1 1 1 0 0 0 0 0 0 0 0 0 0 0 0 0 0 0 0 0 0 0 0 0 0 0
0 0 0 0 0 0 0 0 0 0 0 0 0 0 0 0 0 0 0 0 0 0 0 0 0 0 0 0 0 0 0 0 0 0 0 0 0 0 0 0 0 0 0
0 0 0 0 0 0 0 0 0 0 0 0 0 0 0 0 0 0 0 0 0 0 0 0 0 0 0 0 0 0 0 0 0 0 0 0 0 0 0 0 0 0 0
0 0 0 0 0 0 0 0 0 0 0 0 0 0 0 0 0 0 0 0 0 0 0 0 0 0 0 0 0 0 0 0 0 0 0 0 0 0 0 0 0 0 0
0 0 0 0 0 0 0 0 0 0 0 0 0 0 0 0 0 0 0 0 0 0 0 0 0 0 0 0 0 0 0 0 0 0 0 0 0 0 0 0 0 0 0
0 0 0 0 0 0 0 0 0 0 0 0 0 0 0 0 0 0 0 0 0 0 0 0 0 0 0 0 0 0 0 0 0 0 0 0 0 0 0 0 0 0 0
0 0 0 0 0 0 0 0 0 0 0 0 0 0 0 0 0 0 0 0 0 0 0 0 0 0 0 0 0 0 0 0 0 0 0 0 0 0 0 0 0 0 0
0 0 0 0 0 0 0 0 0 0 0 0 0 0 0 0 0 0 0 0 0 0 0 0 0 0 0 0 0 0 0 0 0 0 0 0 0 0 0 0 0 0 0
0 0 0 0 0 0 0 0 0 0 0 0 0 0 0 0 0 0 0 0 0 0 0 0 0 0 0 0 0 0 0 0 0 0 0 0 0 0 0 0 0 0 0
0 0 0 0 0 0 0 0 0 0 0 0 0 0 0 0 0 0 0 0 0 0 0 0 0 0 0 0 0 0 0 0 0 0 0 0 0 0 0 0 0 0 0
0 0 0 0 0 0 0 0 0 0 0 0 0 0 0 0 0 0 0 0 0 0 0 0 0 0 0 0 0 0 0 0 0 0 0 0 0 0 0 0 0 0 0
0 0 0 0 0 0 0 0 0 0 0 0 0 0 0 0 0 0 0 0 0 0 0 0 0 0 0 0 0 0 0 0 0 0 0 0 0 0 0 0 0 0 0
0 0 0 0 0 0 0 0 0 0 0 0 0 0 0 0 0 0 0 0 0 0 0 0 0 0 0 0 0 0 0 0 0 0 0 0 0 0 0 0 0 0 0
0 0 0 0 0 0 0 0 0 0 0 0 0 0 0 0 0 0 0 0 0 0 0 0 0 0 0 0 0 0 0 0 0 0 0 0 0 0 0 0 0 0 0
0 0 0 0 0 0 0 0 0 0 0 0 0 0 0 0 0 0 0 0 0 0 0 0 0 0 0 0 0 0 0 0 0 0 0 0 0 0 0 0 0 0 0
0 0 0 0 0 0 0 0 0 0 0 0 0 0 0 0 0 0 0 0 0 0 0 0 0 0 0 0 0 0 0 0 0 0 0 0 0 0 0 0 0 0 0
0 0 0 0 0 0 0 0 0 0 0 0 0 0 0 0 0 0 0 0 0 0 0 0 0 0 0 0 0 0 0 0 0 0 0 0 0 0 0 0 0 0 0
0 0 0 0 0 0 0 0 0 0 0 0 0 0 0 0 0 0 0 0 0 0 0 0 0 0 0 0 0 0 0 0 0 0 0 0 0 0 0 0 0 0 0
0 0 0 0 0 0 0 0 0 0 0 0 0 0 0 0 0 0 0 0 0 0 0 0 0 0 0 0 0 0 0 0 0 0 0 0 0 0 0 0 0 0 0
0 0 0 0 0 0 0 0 0 0 0 0 0 0 0 0 0 0 0 0 0 0 0 0 0 0 0 0 0 0 0 0 0 0 0 0 0 0 0 0 0 0 0
Wind_Speed
2 2 3 6 7 7 7 8 10 11 11 6 4 3 3 3 2 3 5 6 6 6 5 3 2 3 3 2 1 1 1 1 1 0 3 4 5 6 5 5 6 8 9
7 6 7 7 8 7 5 3 3 5 5 4 4 3 3 2 2 2 4 6 6 6 5 5 4 3 2 1 0 1 1 0 1 2 1 3 5 4 3 3 4 5 5
13 13 13 11 11 10 8 6 6 4 4 4 2 1 1 0 0 2 3 5 5 5 5 6 5 4 3 2 1 0 1 1 0 1 2 1 2 4 4 3 4 3 3
11 11 11 11 11 9 7 7 6 6 6 5 4 3 1 2 4 3 4 4 6 6 6 6 6 5 3 3 2 2 2 2 1 1 1 3 3 2 4 4 4 5 5
7 6 7 7 6 5 5 4 5 5 5 5 5 4 3 2 3 2 3 3 4 5 5 7 6 5 4 4 3 2 2 2 2 2 2 2 2 3 3 5 5 5 4
4 3 4 5 4 3 3 3 4 3 4 5 6 6 6 6 6 5 4 3 2 2 3 5 6 6 5 5 4 4 3 3 3 3 3 3 2 2 2 4 4 5 4
0 1 2 1 1 0 1 1 3 3 4 5 5 6 6 6 6 5 4 4 3 3 4 3 4 5 5 5 5 4 4 4 4 5 4 3 4 3 3 3 4 4 4
1 2 3 3 4 4 4 3 2 1 1 2 2 2 2 1 2 3 3 3 3 3 5 5 3 3 5 5 5 4 5 4 5 6 5 4 4 4 4 4 3 4 3
3 3 4 4 5 5 6 6 5 4 3 3 3 3 3 3 3 3 2 2 3 4 6 7 6 4 4 6 5 5 5 5 5 6 6 4 4 4 5 4 4 3 3
3 5 6 6 5 4 4 4 4 5 6 6 6 5 5 5 5 5 5 4 4 4 5 5 7 7 6 6 6 5 6 6 6 5 6 6 4 4 4 4 4 5 4
7 8 8 7 6 5 4 4 5 7 7 8 8 7 7 6 6 5 6 6 5 5 5 5 5 6 7 7 6 7 7 7 7 6 7 7 6 4 4 4 4 4 4
8 8 8 7 7 7 7 7 7 8 9 9 8 8 8 7 7 8 8 7 6 6 5 5 5 5 5 6 6 7 7 7 8 8 7 8 6 6 5 4 4 4 4
8 7 7 7 7 8 8 8 9 10 10 9 9 10 9 8 9 10 10 8 7 7 6 5 6 6 6 6 6 6 6 6 7 7 7 8 7 7 5 5 5 4 4
5 6 6 6 7 7 8 9 9 10 11 10 10 10 11 12 13 11 9 8 7 7 8 7 7 7 7 8 8 7 6 6 5 6 7 8 8 8 7 5 5 5 5
7 8 7 7 8 8 8 8 9 9 10 10 11 13 14 13 10 9 9 9 8 9 8 8 7 7 7 8 8 8 7 7 6 6 6 8 10 11 9 6 5 5 4
9 10 10 9 9 10 9 9 9 9 9 10 11 12 12 12 11 11 10 9 9 8 8 9 9 8 8 11 13 9 7 7 7 7 7 7 9 12 13 11 9 7 5
12 12 11 10 11 10 10 9 9 9 8 9 10 10 11 12 12 12 11 10 10 9 8 9 8 9 11 15 16 15 8 7 6 7 6 6 6 9 7 8 7 5 6
12 11 11 11 10 10 9 8 7 7 7 7 8 8 6 7 8 8 8 8 7 6 6 7 6 6 10 15 16 17 9 5 5 6 7 8 8 9 10 7 5 4 4
12 11 11 12 10 9 8 7 6 6 6 6 5 5 6 6 6 6 6 6 5 6 6 5 6 6 10 14 16 14 5 5 5 4 6 9 11 14 14 9 7 6 4
9 9 9 9 8 8 7 8 8 8 9 9 9 7 6 6 7 7 7 5 5 6 6 6 6 7 9 13 16 14 5 5 4 3 5 10 13 16 16 10 9 9 6
10 9 8 8 8 9 8 9 11 12 13 13 12 11 9 8 8 8 7 6 6 6 6 7 7 7 9 12 16 15 6 5 4 3 2 3 11 15 16 12 8 10 10
9 8 8 11 11 11 11 14 14 14 13 14 14 13 11 10 10 7 6 6 6 7 6 6 7 7 8 10 13 16 12 8 5 4 2 0 4 8 11 9 12 15 11
8 9 12 15 14 12 11 14 14 13 13 13 14 13 12 10 8 7 7 7 6 6 6 6 7 7 5 7 13 14 12 11 5 3 4 5 7 4 4 8 17 15 9
10 13 15 15 15 13 12 13 14 12 12 13 13 11 10 9 8 6 6 5 5 5 5 6 6 5 4 4 5 5 6 9 6 4 5 7 9 5 0 6 11 9 9
13 13 14 15 16 15 14 14 13 12 13 13 11 10 8 8 7 6 6 6 6 7 7 6 5 5 5 7 11 9 8 7 6 5 3 2 4 3 1 4 6 6 8
13 13 14 14 15 15 15 14 13 12 12 11 9 7 6 5 4 4 6 9 11 13 14 12 8 5 4 6 12 12 11 11 11 6 4 4 4 4 3 5 5 5 7
Wind_Direction
73 35 56 98 112 117 125 145 169 197 217 224 220 204 210 217 200 192 186 181 186 184 185 190 169 136 134 149 143 133 121 236 212 318 313 295 268 253 251 242 238 243 244
60 57 56 62 71 74 79 102 176 215 239 245 230 202 196 211 214 202 198 196 188 182 178 176 173 163 153 146 94 113 120 191 122 124 2 328 327 323 292 282 260 256 248
46 41 42 43 47 46 46 50 44 36 4 333 318 346 52 57 195 215 215 214 198 185 175 177 172 176 168 175 188 186 159 191 321 140 155 191 275 303 299 299 300 309 287
47 47 46 46 48 49 49 46 40 26 10 10 23 22 327 251 236 229 223 216 201 191 184 181 179 179 170 175 198 212 194 176 230 281 201 194 196 244 304 305 302 314 309
45 59 62 61 51 45 47 45 44 28 10 14 21 34 18 320 310 312 278 247 227 210 198 191 184 179 174 181 186 191 204 192 200 215 227 226 217 205 226 291 312 319 299
37 57 73 76 57 28 23 26 35 27 14 23 24 32 27 15 14 11 359 341 317 296 261 221 196 183 176 181 192 196 201 216 228 228 220 213 214 206 211 261 294 299 293
14 8 14 58 127 162 336 10 31 16 15 30 28 24 19 16 12 0 5 8 358 345 328 276 212 187 183 183 184 194 214 220 226 234 230 220 220 214 209 238 268 279 292
285 277 268 261 250 236 228 225 218 243 18 35 17 6 7 2 334 331 331 335 332 323 333 342 300 219 191 191 192 200 214 217 227 234 227 223 236 228 218 219 238 273 288
340 324 307 288 276 268 253 241 234 238 234 219 225 249 263 258 255 256 259 278 297 309 330 332 322 290 243 221 205 207 216 217 224 231 230 229 239 237 233 224 215 224 261
290 291 288 280 276 272 263 256 250 253 256 248 239 237 242 247 254 265 272 266 269 277 293 301 305 300 280 249 224 216 220 220 225 219 226 235 240 241 235 222 211 205 214
252 259 262 264 263 264 255 250 246 244 249 249 248 251 253 254 259 264 270 273 275 275 277 278 281 291 293 281 252 232 221 222 228 225 227 237 239 234 226 210 196 196 199
273 277 282 284 280 277 275 267 257 249 247 248 250 252 257 262 267 267 266 264 267 269 267 270 277 283 292 302 291 268 247 229 228 228 226 236 239 229 220 208 200 196 197
317 320 314 301 285 279 278 276 272 267 263 252 244 247 251 253 256 259 263 262 259 264 267 259 260 267 274 280 283 283 273 248 237 232 226 230 231 233 224 211 204 206 209
320 308 297 284 277 273 271 271 273 272 271 266 253 244 243 243 246 252 256 260 261 264 267 259 247 248 257 265 266 264 265 259 252 245 237 232 225 225 219 208 209 211 214
305 294 280 267 263 262 261 257 255 258 259 258 251 245 244 243 242 245 250 253 252 253 257 263 256 245 246 253 252 248 248 247 251 254 247 242 234 223 204 195 203 202 197
292 287 277 266 260 256 254 253 255 258 260 257 251 247 243 239 236 237 241 246 249 251 253 256 257 256 256 255 252 245 243 247 249 256 255 246 231 210 199 196 194 189 176
300 297 286 271 264 260 259 260 262 267 270 266 262 254 244 235 230 227 223 226 229 233 240 247 250 254 255 252 250 247 237 240 248 254 251 240 214 188 178 178 169 159 145
300 295 287 283 279 277 280 279 283 285 285 283 285 281 265 247 235 221 214 212 204 201 212 224 234 255 260 251 244 243 236 239 252 259 244 219 202 193 174 159 147 134 123
290 294 296 295 294 296 298 301 303 303 303 302 299 299 302 290 267 243 230 220 212 209 212 216 226 243 258 252 240 234 220 228 245 265 258 224 203 192 171 153 146 132 119
300 301 303 307 313 314 314 312 307 304 298 292 283 276 272 271 270 263 250 233 220 224 230 236 234 241 250 248 235 221 203 215 231 255 269 230 204 183 170 159 155 149 142
306 316 330 335 326 318 314 308 303 298 296 295 289 282 274 267 261 254 246 240 237 237 236 240 243 245 246 245 231 215 197 197 204 217 252 240 202 181 174 162 162 159 145
325 336 331 319 313 310 307 305 301 299 299 297 293 288 281 276 276 259 249 243 239 238 234 235 249 252 247 238 229 216 205 185 179 191 197 154 166 181 176 166 154 146 136
326 326 324 321 319 316 309 305 302 301 299 298 295 291 286 278 271 266 262 254 237 227 227 229 244 251 241 233 227 215 202 185 172 164 152 121 118 138 178 175 154 147 141
329 333 329 326 323 318 312 304 302 299 295 294 294 291 285 277 270 265 259 253 239 231 232 232 237 242 234 216 198 191 184 180 170 152 139 118 115 109 331 172 164 156 154
336 332 329 325 321 320 316 312 308 303 296 290 287 285 278 273 270 265 256 250 243 235 230 230 225 221 232 221 192 179 178 179 178 153 138 144 133 124 162 179 172 153 145
336 330 327 324 322 321 319 316 313 308 303 297 291 284 279 270 264 269 275 258 248 252 241 236 232 234 236 188 173 174 168 165 164 155 162 163 154 148 178 178 160 149 148